Time,TemperatureF,DewpointF,PressureIn,WindDirection,WindDirectionDegrees,WindSpeedMPH,WindSpeedGustMPH,Humidity,HourlyPrecipIn,Conditions,Clouds,dailyrainin,SoftwareType,DateUTC
2013-04-25 00:01:00,34.0,32.7,30.18,WSW,248,2.3,2.3,95,0.00,CLR,CLR,0.00,WeatherDisplay:10.37,2013-04-25 04:01:00,
2013-04-25 00:02:00,34.0,32.7,30.18,WSW,248,2.3,2.3,95,0.00,CLR,CLR,0.00,WeatherDisplay:10.37,2013-04-25 04:02:00,
2013-04-25 00:03:00,34.0,32.7,30.18,SSW,202,2.3,2.3,95,0.00,CLR,CLR,0.00,WeatherDisplay:10.37,2013-04-25 04:03:00,
2013-04-25 00:08:00,34.0,32.7,30.18,SSW,202,2.3,2.3,95,0.00,CLR,CLR,0.00,WeatherDisplay:10.37,2013-04-25 04:08:00,
2013-04-25 00:14:00,34.0,32.7,30.18,WSW,248,1.2,0.0,95,0.00,CLR,CLR,0.00,WeatherDisplay:10.37,2013-04-25 04:14:00,
2013-04-25 00:19:00,33.8,32.5,30.18,SSW,202,1.2,0.0,95,0.00,CLR,CLR,0.00,WeatherDisplay:10.37,2013-04-25 04:19:00,
2013-04-25 00:24:00,33.6,32.3,30.18,SSW,202,0.0,0.0,95,0.00,CLR,CLR,0.00,WeatherDisplay:10.37,2013-04-25 04:24:00,
2013-04-25 00:29:00,33.4,32.2,30.18,SSW,202,0.0,0.0,95,0.00,CLR,CLR,0.00,WeatherDisplay:10.37,2013-04-25 04:29:00,
2013-04-25 00:35:00,33.1,31.8,30.18,SSW,202,0.0,0.0,95,0.00,CLR,CLR,0.00,WeatherDisplay:10.37,2013-04-25 04:35:00,
2013-04-25 00:40:00,33.1,31.8,30.18,SSW,202,0.0,0.0,95,0.00,CLR,CLR,0.00,WeatherDisplay:10.37,2013-04-25 04:40:00,
2013-04-25 00:45:00,33.1,31.8,30.18,SSE,158,2.3,2.3,95,0.00,CLR,CLR,0.00,WeatherDisplay:10.37,2013-04-25 04:45:00,
2013-04-25 00:50:00,33.3,32.0,30.18,SSE,158,2.3,2.3,95,0.00,CLR,CLR,0.00,WeatherDisplay:10.37,2013-04-25 04:50:00,
2013-04-25 00:55:00,33.3,32.2,30.18,SSE,158,2.3,2.3,96,0.00,CLR,CLR,0.00,WeatherDisplay:10.37,2013-04-25 04:55:00,
2013-04-25 01:00:00,33.1,32.1,30.18,SSE,158,2.0,2.0,96,0.00,CLR,CLR,0.00,WeatherDisplay:10.37,2013-04-25 05:00:00,
2013-04-25 01:05:00,33.4,32.7,30.18,South,180,2.4,2.4,97,0.00,CLR,CLR,0.00,WeatherDisplay:10.37,2013-04-25 05:05:00,
2013-04-25 01:10:00,33.6,33.1,30.18,South,180,2.3,2.3,98,0.00,CLR,CLR,0.00,WeatherDisplay:10.37,2013-04-25 05:10:00,
2013-04-25 01:15:00,33.8,33.0,30.18,SSE,158,2.3,2.3,97,0.00,CLR,CLR,0.00,WeatherDisplay:10.37,2013-04-25 05:15:00,
2013-04-25 01:21:00,34.2,33.7,30.18,SSE,158,2.6,2.6,98,0.00,CLR,CLR,0.00,WeatherDisplay:10.37,2013-04-25 05:21:00,
2013-04-25 01:26:00,34.3,33.8,30.18,SSW,202,3.5,3.5,98,0.00,CLR,CLR,0.00,WeatherDisplay:10.37,2013-04-25 05:26:00,
2013-04-25 01:31:00,34.3,33.8,30.18,SSE,158,4.6,4.6,98,0.00,CLR,CLR,0.00,WeatherDisplay:10.37,2013-04-25 05:31:00,
2013-04-25 01:37:00,34.3,33.8,30.18,SSE,158,4.6,4.6,98,0.00,CLR,CLR,0.00,WeatherDisplay:10.37,2013-04-25 05:37:00,
2013-04-25 01:42:00,34.5,34.0,30.18,SSE,158,3.5,3.6,98,0.00,CLR,CLR,0.00,WeatherDisplay:10.37,2013-04-25 05:42:00,
2013-04-25 01:47:00,34.7,34.2,30.18,South,180,4.7,4.7,98,0.00,CLR,CLR,0.00,WeatherDisplay:10.37,2013-04-25 05:47:00,
2013-04-25 01:52:00,34.7,34.2,30.21,SSE,158,6.0,6.0,98,0.00,CLR,CLR,0.00,WeatherDisplay:10.37,2013-04-25 05:52:00,
2013-04-25 01:57:00,34.5,34.0,30.21,SSE,158,4.6,4.6,98,0.00,CLR,CLR,0.00,WeatherDisplay:10.37,2013-04-25 05:57:00,
2013-04-25 02:02:00,34.5,34.0,30.21,South,180,3.5,3.5,98,0.00,CLR,CLR,0.00,WeatherDisplay:10.37,2013-04-25 06:02:00,
2013-04-25 02:07:00,34.5,34.0,30.18,SSW,202,4.0,4.0,98,0.00,CLR,CLR,0.00,WeatherDisplay:10.37,2013-04-25 06:07:00,
2013-04-25 02:13:00,34.5,34.0,30.18,SSW,202,4.6,4.6,98,0.00,CLR,CLR,0.00,WeatherDisplay:10.37,2013-04-25 06:13:00,
2013-04-25 02:18:00,34.5,34.0,30.18,SSW,202,3.6,3.6,98,0.00,CLR,CLR,0.00,WeatherDisplay:10.37,2013-04-25 06:18:00,
2013-04-25 02:23:00,34.7,34.2,30.18,South,180,5.9,5.9,98,0.00,CLR,CLR,0.00,WeatherDisplay:10.37,2013-04-25 06:23:00,
2013-04-25 02:28:00,34.9,34.4,30.18,South,180,5.8,5.8,98,0.00,CLR,CLR,0.00,WeatherDisplay:10.37,2013-04-25 06:28:00,
2013-04-25 02:33:00,34.7,34.2,30.18,SSW,202,3.5,3.5,98,0.00,CLR,CLR,0.00,WeatherDisplay:10.37,2013-04-25 06:33:00,
2013-04-25 02:38:00,34.7,34.2,30.18,South,180,4.6,4.6,98,0.00,CLR,CLR,0.00,WeatherDisplay:10.37,2013-04-25 06:38:00,
2013-04-25 02:43:00,34.5,34.0,30.18,SSW,202,5.4,5.4,98,0.00,CLR,CLR,0.00,WeatherDisplay:10.37,2013-04-25 06:43:00,
2013-04-25 02:48:00,34.7,34.2,30.18,SW,225,3.5,3.5,98,0.00,CLR,CLR,0.00,WeatherDisplay:10.37,2013-04-25 06:48:00,
2013-04-25 02:54:00,34.9,34.4,30.18,South,180,4.6,4.6,98,0.00,CLR,CLR,0.00,WeatherDisplay:10.37,2013-04-25 06:54:00,
2013-04-25 02:59:00,34.7,34.2,30.18,SSW,202,3.5,3.5,98,0.00,CLR,CLR,0.00,WeatherDisplay:10.37,2013-04-25 06:59:00,
2013-04-25 03:04:00,34.7,34.2,30.18,South,180,4.6,4.6,98,0.00,CLR,CLR,0.00,WeatherDisplay:10.37,2013-04-25 07:04:00,
2013-04-25 03:09:00,34.5,34.0,30.18,SSW,202,3.5,3.5,98,0.00,CLR,CLR,0.00,WeatherDisplay:10.37,2013-04-25 07:09:00,
2013-04-25 03:14:00,34.5,34.0,30.18,SSW,202,2.3,2.3,98,0.00,CLR,CLR,0.00,WeatherDisplay:10.37,2013-04-25 07:14:00,
2013-04-25 03:19:00,34.3,33.8,30.18,SSE,158,3.1,3.1,98,0.00,CLR,CLR,0.00,WeatherDisplay:10.37,2013-04-25 07:19:00,
2013-04-25 03:24:00,34.3,33.8,30.18,SSW,202,3.5,3.5,98,0.00,CLR,CLR,0.00,WeatherDisplay:10.37,2013-04-25 07:24:00,
2013-04-25 03:29:00,34.3,33.8,30.18,SSW,202,2.6,2.6,98,0.00,CLR,CLR,0.00,WeatherDisplay:10.37,2013-04-25 07:29:00,
2013-04-25 03:34:00,34.5,34.0,30.18,SSW,202,3.5,3.5,98,0.00,CLR,CLR,0.00,WeatherDisplay:10.37,2013-04-25 07:34:00,
2013-04-25 03:39:00,34.3,33.8,30.18,SSW,202,4.6,4.6,98,0.00,CLR,CLR,0.00,WeatherDisplay:10.37,2013-04-25 07:39:00,
2013-04-25 03:45:00,34.3,33.8,30.18,SSW,202,3.5,3.5,98,0.00,CLR,CLR,0.00,WeatherDisplay:10.37,2013-04-25 07:45:00,
2013-04-25 03:50:00,34.3,33.8,30.18,South,180,4.6,4.6,98,0.00,CLR,CLR,0.00,WeatherDisplay:10.37,2013-04-25 07:50:00,
2013-04-25 03:55:00,34.3,33.8,30.18,SSW,202,4.6,4.6,98,0.00,CLR,CLR,0.00,WeatherDisplay:10.37,2013-04-25 07:55:00,
2013-04-25 04:00:00,34.3,33.8,30.18,SSE,158,3.5,3.5,98,0.00,CLR,CLR,0.00,WeatherDisplay:10.37,2013-04-25 08:00:00,
2013-04-25 04:05:00,34.3,33.8,30.18,SSE,158,2.9,2.9,98,0.00,CLR,CLR,0.00,WeatherDisplay:10.37,2013-04-25 08:05:00,
2013-04-25 04:10:00,34.3,33.8,30.18,SSE,158,3.5,3.5,98,0.00,CLR,CLR,0.00,WeatherDisplay:10.37,2013-04-25 08:10:00,
2013-04-25 04:16:00,34.3,33.8,30.18,SSW,202,3.5,3.5,98,0.00,CLR,CLR,0.00,WeatherDisplay:10.37,2013-04-25 08:16:00,
2013-04-25 04:21:00,34.0,33.5,30.18,SSE,158,2.3,2.3,98,0.00,CLR,CLR,0.00,WeatherDisplay:10.37,2013-04-25 08:21:00,
2013-04-25 04:26:00,34.0,33.5,30.18,SSW,202,2.3,2.3,98,0.00,CLR,CLR,0.00,WeatherDisplay:10.37,2013-04-25 08:26:00,
2013-04-25 04:31:00,34.0,33.5,30.18,WSW,248,3.5,3.5,98,0.00,CLR,CLR,0.00,WeatherDisplay:10.37,2013-04-25 08:31:00,
2013-04-25 04:36:00,34.0,33.5,30.21,SSW,202,3.6,3.6,98,0.00,CLR,CLR,0.00,WeatherDisplay:10.37,2013-04-25 08:36:00,
2013-04-25 04:42:00,34.2,33.7,30.21,SSW,202,4.6,4.6,98,0.00,CLR,CLR,0.00,WeatherDisplay:10.37,2013-04-25 08:42:00,
2013-04-25 04:47:00,34.2,33.7,30.21,SSW,202,2.3,2.3,98,0.00,CLR,CLR,0.00,WeatherDisplay:10.37,2013-04-25 08:47:00,
2013-04-25 04:52:00,34.0,33.5,30.18,SSE,158,3.5,3.5,98,0.00,CLR,CLR,0.00,WeatherDisplay:10.37,2013-04-25 08:52:00,
2013-04-25 04:57:00,34.2,33.7,30.18,SSW,202,3.5,3.5,98,0.00,CLR,CLR,0.00,WeatherDisplay:10.37,2013-04-25 08:57:00,
2013-04-25 05:02:00,34.2,33.7,30.18,SSW,202,3.5,3.5,98,0.00,CLR,CLR,0.00,WeatherDisplay:10.37,2013-04-25 09:02:00,
2013-04-25 05:08:00,34.2,33.7,30.18,SSW,202,4.6,4.6,98,0.00,CLR,CLR,0.00,WeatherDisplay:10.37,2013-04-25 09:08:00,
2013-04-25 05:13:00,34.3,33.8,30.18,SSW,202,4.6,4.6,98,0.00,CLR,CLR,0.00,WeatherDisplay:10.37,2013-04-25 09:13:00,
2013-04-25 05:18:00,34.3,33.8,30.18,SSW,202,2.3,2.4,98,0.00,CLR,CLR,0.00,WeatherDisplay:10.37,2013-04-25 09:18:00,
2013-04-25 05:23:00,34.3,33.8,30.18,SSE,158,3.5,3.5,98,0.00,CLR,CLR,0.00,WeatherDisplay:10.37,2013-04-25 09:23:00,
2013-04-25 05:28:00,34.3,33.8,30.18,SSE,158,2.3,2.3,98,0.00,CLR,CLR,0.00,WeatherDisplay:10.37,2013-04-25 09:28:00,
2013-04-25 05:33:00,34.2,33.7,30.18,SSE,158,2.3,2.3,98,0.00,CLR,CLR,0.00,WeatherDisplay:10.37,2013-04-25 09:33:00,
2013-04-25 05:38:00,33.8,33.3,30.18,South,180,2.3,0.0,98,0.00,CLR,CLR,0.00,WeatherDisplay:10.37,2013-04-25 09:38:00,
2013-04-25 05:43:00,33.6,33.1,30.18,SSE,158,2.3,2.3,98,0.00,CLR,CLR,0.00,WeatherDisplay:10.37,2013-04-25 09:43:00,
2013-04-25 05:49:00,33.4,32.9,30.18,South,180,0.9,0.9,98,0.00,CLR,CLR,0.00,WeatherDisplay:10.37,2013-04-25 09:49:00,
2013-04-25 05:54:00,33.4,32.9,30.18,SSE,158,1.4,1.4,98,0.00,CLR,CLR,0.00,WeatherDisplay:10.37,2013-04-25 09:54:00,
2013-04-25 05:59:00,33.4,32.9,30.18,SSE,158,2.3,2.3,98,0.00,CLR,CLR,0.00,WeatherDisplay:10.37,2013-04-25 09:59:00,
2013-04-25 06:04:00,33.3,32.8,30.18,SSW,202,2.3,2.3,98,0.00,CLR,CLR,0.00,WeatherDisplay:10.37,2013-04-25 10:04:00,
2013-04-25 06:09:00,33.1,32.6,30.18,SSW,202,2.9,2.9,98,0.00,CLR,CLR,0.00,WeatherDisplay:10.37,2013-04-25 10:09:00,
2013-04-25 06:14:00,33.4,32.9,30.18,South,180,2.3,2.3,98,0.00,CLR,CLR,0.00,WeatherDisplay:10.37,2013-04-25 10:14:00,
2013-04-25 06:19:00,33.6,33.1,30.21,South,180,3.5,3.5,98,0.00,CLR,CLR,0.00,WeatherDisplay:10.37,2013-04-25 10:19:00,
2013-04-25 06:25:00,33.6,33.1,30.21,SSE,158,3.5,3.5,98,0.00,CLR,CLR,0.00,WeatherDisplay:10.37,2013-04-25 10:25:00,
2013-04-25 06:30:00,33.6,33.1,30.21,South,180,2.3,2.3,98,0.00,CLR,CLR,0.00,WeatherDisplay:10.37,2013-04-25 10:30:00,
2013-04-25 06:35:00,33.6,33.1,30.21,SSW,202,2.0,2.0,98,0.00,CLR,CLR,0.00,WeatherDisplay:10.37,2013-04-25 10:35:00,
2013-04-25 06:40:00,33.8,33.3,30.21,SSW,202,2.3,2.3,98,0.00,CLR,CLR,0.00,WeatherDisplay:10.37,2013-04-25 10:40:00,
2013-04-25 06:45:00,33.8,33.3,30.21,South,180,2.6,2.6,98,0.00,CLR,CLR,0.00,WeatherDisplay:10.37,2013-04-25 10:45:00,
2013-04-25 06:50:00,33.8,33.3,30.21,SSW,202,2.9,2.9,98,0.00,CLR,CLR,0.00,WeatherDisplay:10.37,2013-04-25 10:50:00,
2013-04-25 06:55:00,34.0,33.5,30.21,WSW,248,2.6,2.6,98,0.00,CLR,CLR,0.00,WeatherDisplay:10.37,2013-04-25 10:55:00,
2013-04-25 07:00:00,34.2,33.7,30.21,SSW,202,4.6,4.6,98,0.00,CLR,CLR,0.00,WeatherDisplay:10.37,2013-04-25 11:00:00,
2013-04-25 07:05:00,34.9,34.4,30.24,SSW,202,3.5,3.5,98,0.00,CLR,CLR,0.00,WeatherDisplay:10.37,2013-04-25 11:05:00,
2013-04-25 07:11:00,35.2,34.7,30.24,South,180,2.4,2.4,98,0.00,CLR,CLR,0.00,WeatherDisplay:10.37,2013-04-25 11:11:00,
2013-04-25 07:16:00,35.4,34.9,30.24,SSW,202,4.6,4.6,98,0.00,CLR,CLR,0.00,WeatherDisplay:10.37,2013-04-25 11:16:00,
2013-04-25 07:21:00,35.8,35.3,30.24,SSW,202,2.3,2.3,98,0.00,CLR,CLR,0.00,WeatherDisplay:10.37,2013-04-25 11:21:00,
2013-04-25 07:26:00,36.1,35.6,30.24,SSW,202,3.5,3.5,98,0.00,CLR,CLR,0.00,WeatherDisplay:10.37,2013-04-25 11:26:00,
2013-04-25 07:31:00,36.3,35.8,30.24,SSW,202,3.5,3.5,98,0.00,CLR,CLR,0.00,WeatherDisplay:10.37,2013-04-25 11:31:00,
2013-04-25 07:36:00,36.7,36.2,30.24,SSW,202,4.3,4.3,98,0.00,CLR,CLR,0.00,WeatherDisplay:10.37,2013-04-25 11:36:00,
2013-04-25 07:41:00,37.0,36.5,30.24,SSW,202,3.1,3.1,98,0.00,CLR,CLR,0.00,WeatherDisplay:10.37,2013-04-25 11:41:00,
2013-04-25 07:46:00,37.2,36.7,30.24,WSW,248,4.6,4.6,98,0.00,CLR,CLR,0.00,WeatherDisplay:10.37,2013-04-25 11:46:00,
2013-04-25 07:51:00,37.6,36.5,30.24,WSW,248,4.6,4.6,96,0.00,CLR,CLR,0.00,WeatherDisplay:10.37,2013-04-25 11:51:00,
2013-04-25 07:56:00,37.8,36.7,30.24,SSW,202,4.6,4.6,96,0.00,CLR,CLR,0.00,WeatherDisplay:10.37,2013-04-25 11:56:00,
2013-04-25 08:02:00,38.1,36.8,30.24,SSW,202,4.6,4.6,95,0.00,CLR,CLR,0.00,WeatherDisplay:10.37,2013-04-25 12:02:00,
2013-04-25 08:07:00,38.7,36.8,30.24,West,270,3.5,3.5,93,0.00,CLR,CLR,0.00,WeatherDisplay:10.37,2013-04-25 12:07:00,
2013-04-25 08:12:00,38.8,36.4,30.24,SSW,202,3.5,3.5,91,0.00,CLR,CLR,0.00,WeatherDisplay:10.37,2013-04-25 12:12:00,
2013-04-25 08:17:00,39.2,36.5,30.24,SSW,202,4.6,4.6,90,0.00,CLR,CLR,0.00,WeatherDisplay:10.37,2013-04-25 12:17:00,
2013-04-25 08:22:00,40.3,37.3,30.24,SSE,158,5.8,5.8,89,0.00,CLR,CLR,0.00,WeatherDisplay:10.37,2013-04-25 12:22:00,
2013-04-25 08:28:00,40.5,36.9,30.24,South,180,3.5,3.5,87,0.00,CLR,CLR,0.00,WeatherDisplay:10.37,2013-04-25 12:28:00,
2013-04-25 08:33:00,41.0,36.5,30.24,SSW,202,5.8,5.8,84,0.00,CLR,CLR,0.00,WeatherDisplay:10.37,2013-04-25 12:33:00,
2013-04-25 08:38:00,41.2,36.4,30.24,SSW,202,4.6,4.6,83,0.00,CLR,CLR,0.00,WeatherDisplay:10.37,2013-04-25 12:38:00,
2013-04-25 08:43:00,42.1,37.6,30.24,SSW,202,5.8,5.8,84,0.00,CLR,CLR,0.00,WeatherDisplay:10.37,2013-04-25 12:43:00,
2013-04-25 08:49:00,41.9,35.2,30.24,SSW,202,5.8,5.8,77,0.00,CLR,CLR,0.00,WeatherDisplay:10.37,2013-04-25 12:49:00,
2013-04-25 08:54:00,43.0,36.3,30.24,SSE,158,5.9,5.9,77,0.00,CLR,CLR,0.00,WeatherDisplay:10.37,2013-04-25 12:54:00,
2013-04-25 08:59:00,43.5,36.8,30.24,South,180,4.6,4.6,77,0.00,CLR,CLR,0.00,WeatherDisplay:10.37,2013-04-25 12:59:00,
2013-04-25 09:04:00,43.7,36.0,30.24,SSW,202,5.8,5.8,74,0.00,CLR,CLR,0.00,WeatherDisplay:10.37,2013-04-25 13:04:00,
2013-04-25 09:09:00,44.1,36.0,30.24,WSW,248,5.8,5.8,73,0.00,CLR,CLR,0.00,WeatherDisplay:10.37,2013-04-25 13:09:00,
2013-04-25 09:14:00,45.0,35.8,30.24,SSW,202,5.8,5.8,70,0.00,CLR,CLR,0.00,WeatherDisplay:10.37,2013-04-25 13:14:00,
2013-04-25 09:20:00,46.0,37.2,30.24,SSW,202,4.6,4.6,71,0.00,CLR,CLR,0.00,WeatherDisplay:10.37,2013-04-25 13:20:00,
2013-04-25 09:25:00,46.0,36.8,30.24,SSW,202,6.9,6.9,70,0.00,CLR,CLR,0.00,WeatherDisplay:10.37,2013-04-25 13:25:00,
2013-04-25 09:30:00,46.8,36.4,30.24,SSW,202,5.8,5.8,67,0.00,CLR,CLR,0.00,WeatherDisplay:10.37,2013-04-25 13:30:00,
2013-04-25 09:35:00,46.9,35.4,30.24,South,180,6.9,6.9,64,0.00,CLR,CLR,0.00,WeatherDisplay:10.37,2013-04-25 13:35:00,
2013-04-25 09:41:00,47.3,35.7,30.24,SSW,202,4.6,4.6,64,0.00,CLR,CLR,0.00,WeatherDisplay:10.37,2013-04-25 13:41:00,
2013-04-25 09:46:00,47.8,36.2,30.24,SSW,202,8.1,8.1,64,0.00,CLR,CLR,0.00,WeatherDisplay:10.37,2013-04-25 13:46:00,
2013-04-25 09:51:00,47.7,34.0,30.24,SSW,202,8.1,8.1,59,0.00,CLR,CLR,0.00,WeatherDisplay:10.37,2013-04-25 13:51:00,
2013-04-25 09:56:00,47.8,33.3,30.24,West,270,9.2,9.2,57,0.00,CLR,CLR,0.00,WeatherDisplay:10.37,2013-04-25 13:56:00,
2013-04-25 10:02:00,47.8,32.4,30.24,SSW,202,8.1,8.1,55,0.00,CLR,CLR,0.00,WeatherDisplay:10.37,2013-04-25 14:02:00,
2013-04-25 10:07:00,48.7,33.3,30.24,NNE,22,6.9,6.9,55,0.00,CLR,CLR,0.00,WeatherDisplay:10.37,2013-04-25 14:07:00,
2013-04-25 10:12:00,49.8,34.3,30.24,WNW,292,5.8,5.8,55,0.00,CLR,CLR,0.00,WeatherDisplay:10.37,2013-04-25 14:12:00,
2013-04-25 10:18:00,49.1,33.2,30.24,South,180,6.4,6.4,54,0.00,CLR,CLR,0.00,WeatherDisplay:10.37,2013-04-25 14:18:00,
2013-04-25 10:24:00,49.6,32.7,30.24,SSW,202,9.2,9.2,52,0.00,CLR,CLR,0.00,WeatherDisplay:10.37,2013-04-25 14:24:00,
2013-04-25 10:29:00,49.3,31.9,30.24,SSW,202,6.9,6.9,51,0.00,CLR,CLR,0.00,WeatherDisplay:10.37,2013-04-25 14:29:00,
2013-04-25 10:34:00,48.7,31.4,30.24,SSW,202,13.8,13.8,51,0.00,CLR,CLR,0.00,WeatherDisplay:10.37,2013-04-25 14:34:00,
2013-04-25 10:39:00,49.5,32.1,30.24,WSW,248,5.8,5.8,51,0.00,CLR,CLR,0.00,WeatherDisplay:10.37,2013-04-25 14:39:00,
2013-04-25 10:44:00,49.8,32.4,30.24,WSW,248,10.2,10.2,51,0.00,CLR,CLR,0.00,WeatherDisplay:10.37,2013-04-25 14:44:00,
2013-04-25 10:50:00,50.2,32.2,30.24,SSW,202,8.1,8.1,50,0.00,CLR,CLR,0.00,WeatherDisplay:10.37,2013-04-25 14:50:00,
2013-04-25 10:55:00,50.0,32.6,30.24,SSW,202,8.1,8.1,51,0.00,CLR,CLR,0.00,WeatherDisplay:10.37,2013-04-25 14:55:00,
2013-04-25 11:00:00,50.0,32.1,30.24,WSW,248,8.1,8.5,50,0.00,CLR,CLR,0.00,WeatherDisplay:10.37,2013-04-25 15:00:00,
2013-04-25 11:05:00,50.2,32.7,30.24,South,180,10.5,10.5,51,0.00,CLR,CLR,0.00,WeatherDisplay:10.37,2013-04-25 15:05:00,
2013-04-25 11:10:00,50.9,33.4,30.24,SSW,202,5.9,5.9,51,0.00,CLR,CLR,0.00,WeatherDisplay:10.37,2013-04-25 15:10:00,
2013-04-25 11:15:00,50.7,33.2,30.24,SSE,158,13.8,13.8,51,0.00,CLR,CLR,0.00,WeatherDisplay:10.37,2013-04-25 15:15:00,
2013-04-25 11:21:00,52.2,33.6,30.24,WSW,248,5.8,5.9,49,0.00,CLR,CLR,0.00,WeatherDisplay:10.37,2013-04-25 15:21:00,
2013-04-25 11:26:00,51.1,32.6,30.24,SSW,202,12.7,12.7,49,0.00,CLR,CLR,0.00,WeatherDisplay:10.37,2013-04-25 15:26:00,
2013-04-25 11:31:00,51.3,32.7,30.24,SSW,202,10.4,10.4,49,0.00,CLR,CLR,0.00,WeatherDisplay:10.37,2013-04-25 15:31:00,
2013-04-25 11:36:00,51.6,33.1,30.24,ESE,112,14.3,14.3,49,0.00,CLR,CLR,0.00,WeatherDisplay:10.37,2013-04-25 15:36:00,
2013-04-25 11:42:00,52.2,33.0,30.24,SSW,202,8.1,8.1,48,0.00,CLR,CLR,0.00,WeatherDisplay:10.37,2013-04-25 15:42:00,
2013-04-25 11:47:00,52.0,32.9,30.24,SSW,202,10.4,10.4,48,0.00,CLR,CLR,0.00,WeatherDisplay:10.37,2013-04-25 15:47:00,
2013-04-25 11:52:00,54.3,34.5,30.24,ESE,112,11.5,11.5,47,0.00,CLR,CLR,0.00,WeatherDisplay:10.37,2013-04-25 15:52:00,
2013-04-25 11:57:00,53.6,33.3,30.24,WSW,248,13.0,13.0,46,0.00,CLR,CLR,0.00,WeatherDisplay:10.37,2013-04-25 15:57:00,
2013-04-25 12:02:00,51.8,32.2,30.24,South,180,12.7,12.7,47,0.00,CLR,CLR,0.00,WeatherDisplay:10.37,2013-04-25 16:02:00,
2013-04-25 12:08:00,53.2,33.5,30.24,NNW,338,10.0,10.0,47,0.00,CLR,CLR,0.00,WeatherDisplay:10.37,2013-04-25 16:08:00,
2013-04-25 12:13:00,54.1,33.8,30.24,SE,135,13.8,13.8,46,0.00,CLR,CLR,0.00,WeatherDisplay:10.37,2013-04-25 16:13:00,
2013-04-25 12:18:00,53.2,33.5,30.24,WNW,292,8.1,8.1,47,0.00,CLR,CLR,0.00,WeatherDisplay:10.37,2013-04-25 16:18:00,
2013-04-25 12:23:00,52.2,32.5,30.24,SSW,202,11.5,11.5,47,0.00,CLR,CLR,0.00,WeatherDisplay:10.37,2013-04-25 16:23:00,
2013-04-25 12:28:00,52.5,33.4,30.24,SSW,202,8.1,8.1,48,0.00,CLR,CLR,0.00,WeatherDisplay:10.37,2013-04-25 16:28:00,
2013-04-25 12:33:00,52.2,32.5,30.24,WNW,292,11.5,11.5,47,0.00,CLR,CLR,0.00,WeatherDisplay:10.37,2013-04-25 16:33:00,
2013-04-25 12:39:00,53.8,34.0,30.24,SSW,202,13.2,13.2,47,0.00,CLR,CLR,0.00,WeatherDisplay:10.37,2013-04-25 16:39:00,
2013-04-25 12:44:00,52.0,32.4,30.24,SSE,158,10.4,10.4,47,0.00,CLR,CLR,0.00,WeatherDisplay:10.37,2013-04-25 16:44:00,
2013-04-25 12:49:00,54.1,33.8,30.24,WNW,292,11.5,11.5,46,0.00,CLR,CLR,0.00,WeatherDisplay:10.37,2013-04-25 16:49:00,
2013-04-25 12:54:00,53.6,33.3,30.24,SSW,202,10.4,10.4,46,0.00,CLR,CLR,0.00,WeatherDisplay:10.37,2013-04-25 16:54:00,
2013-04-25 12:59:00,54.0,33.6,30.24,SSE,158,9.2,10.0,46,0.00,CLR,CLR,0.00,WeatherDisplay:10.37,2013-04-25 16:59:00,
2013-04-25 13:04:00,55.4,34.4,30.24,WSW,248,13.2,13.2,45,0.00,CLR,CLR,0.00,WeatherDisplay:10.37,2013-04-25 17:04:00,
2013-04-25 13:10:00,56.8,36.3,30.24,WSW,248,12.7,12.7,46,0.00,CLR,CLR,0.00,WeatherDisplay:10.37,2013-04-25 17:10:00,
2013-04-25 13:15:00,54.9,33.9,30.24,SSE,158,16.1,16.1,45,0.00,CLR,CLR,0.00,WeatherDisplay:10.37,2013-04-25 17:15:00,
2013-04-25 13:20:00,52.7,32.5,30.24,SSE,158,10.5,10.5,46,0.00,CLR,CLR,0.00,WeatherDisplay:10.37,2013-04-25 17:20:00,
2013-04-25 13:25:00,52.9,33.2,30.24,SSW,202,7.4,8.5,47,0.00,CLR,CLR,0.00,WeatherDisplay:10.37,2013-04-25 17:25:00,
2013-04-25 13:30:00,53.6,33.3,30.24,NNE,22,10.7,10.7,46,0.00,CLR,CLR,0.00,WeatherDisplay:10.37,2013-04-25 17:30:00,
2013-04-25 13:35:00,53.6,33.3,30.24,West,270,12.3,12.3,46,0.00,CLR,CLR,0.00,WeatherDisplay:10.37,2013-04-25 17:35:00,
2013-04-25 13:41:00,53.6,33.3,30.24,WNW,292,10.4,10.4,46,0.00,CLR,CLR,0.00,WeatherDisplay:10.37,2013-04-25 17:41:00,
2013-04-25 13:46:00,54.9,34.5,30.24,SSW,202,6.9,6.9,46,0.00,CLR,CLR,0.00,WeatherDisplay:10.37,2013-04-25 17:46:00,
2013-04-25 13:51:00,54.5,34.1,30.24,South,180,13.8,13.8,46,0.00,CLR,CLR,0.00,WeatherDisplay:10.37,2013-04-25 17:51:00,
2013-04-25 13:56:00,56.1,35.1,30.24,SSE,158,11.5,11.5,45,0.00,CLR,CLR,0.00,WeatherDisplay:10.37,2013-04-25 17:56:00,
2013-04-25 14:01:00,56.5,35.4,30.24,SSW,202,9.2,9.2,45,0.00,CLR,CLR,0.00,WeatherDisplay:10.37,2013-04-25 18:01:00,
2013-04-25 14:06:00,54.9,33.9,30.24,SW,225,9.2,9.2,45,0.00,CLR,CLR,0.00,WeatherDisplay:10.37,2013-04-25 18:06:00,
2013-04-25 14:12:00,55.2,34.2,30.24,SSW,202,12.8,12.8,45,0.00,CLR,CLR,0.00,WeatherDisplay:10.37,2013-04-25 18:12:00,
2013-04-25 14:17:00,56.7,35.5,30.24,WSW,248,11.5,11.5,45,0.00,CLR,CLR,0.00,WeatherDisplay:10.37,2013-04-25 18:17:00,
2013-04-25 14:22:00,55.8,34.2,30.24,WSW,248,12.7,12.7,44,0.00,CLR,CLR,0.00,WeatherDisplay:10.37,2013-04-25 18:22:00,
2013-04-25 14:27:00,54.5,33.6,30.24,WSW,248,8.1,9.8,45,0.00,CLR,CLR,0.00,WeatherDisplay:10.37,2013-04-25 18:27:00,
2013-04-25 14:32:00,54.5,33.6,30.24,SSE,158,8.1,8.1,45,0.00,CLR,CLR,0.00,WeatherDisplay:10.37,2013-04-25 18:32:00,
2013-04-25 14:37:00,54.1,33.8,30.21,South,180,9.4,9.4,46,0.00,CLR,CLR,0.00,WeatherDisplay:10.37,2013-04-25 18:37:00,
2013-04-25 14:43:00,54.0,33.6,30.21,SSE,158,13.8,13.8,46,0.00,CLR,CLR,0.00,WeatherDisplay:10.37,2013-04-25 18:43:00,
2013-04-25 14:48:00,53.6,32.8,30.21,WSW,248,12.1,12.1,45,0.00,CLR,CLR,0.00,WeatherDisplay:10.37,2013-04-25 18:48:00,
2013-04-25 14:53:00,53.6,33.3,30.21,WSW,248,15.0,15.0,46,0.00,CLR,CLR,0.00,WeatherDisplay:10.37,2013-04-25 18:53:00,
2013-04-25 14:58:00,54.0,33.6,30.21,SSE,158,6.9,6.9,46,0.00,CLR,CLR,0.00,WeatherDisplay:10.37,2013-04-25 18:58:00,
2013-04-25 15:03:00,56.1,35.1,30.21,SSE,158,15.0,15.0,45,0.00,CLR,CLR,0.00,WeatherDisplay:10.37,2013-04-25 19:03:00,
2013-04-25 15:09:00,55.2,34.2,30.21,NNW,338,11.5,11.5,45,0.00,CLR,CLR,0.00,WeatherDisplay:10.37,2013-04-25 19:09:00,
2013-04-25 15:14:00,55.4,34.4,30.21,SSW,202,8.1,8.1,45,0.00,CLR,CLR,0.00,WeatherDisplay:10.37,2013-04-25 19:14:00,
2013-04-25 15:19:00,56.1,35.1,30.21,WSW,248,9.2,9.2,45,0.00,CLR,CLR,0.00,WeatherDisplay:10.37,2013-04-25 19:19:00,
2013-04-25 15:24:00,55.2,34.2,30.21,SSW,202,10.4,10.4,45,0.00,CLR,CLR,0.00,WeatherDisplay:10.37,2013-04-25 19:24:00,
2013-04-25 15:29:00,55.2,34.8,30.21,SSW,202,10.5,10.5,46,0.00,CLR,CLR,0.00,WeatherDisplay:10.37,2013-04-25 19:29:00,
2013-04-25 15:34:00,54.1,33.8,30.21,SSW,202,9.2,9.2,46,0.00,CLR,CLR,0.00,WeatherDisplay:10.37,2013-04-25 19:34:00,
2013-04-25 15:39:00,54.0,33.6,30.21,SSW,202,12.7,12.7,46,0.00,CLR,CLR,0.00,WeatherDisplay:10.37,2013-04-25 19:39:00,
2013-04-25 15:44:00,54.0,33.6,30.21,WSW,248,18.1,18.1,46,0.00,CLR,CLR,0.00,WeatherDisplay:10.37,2013-04-25 19:44:00,
2013-04-25 15:50:00,55.9,35.4,30.21,SSW,202,8.1,8.1,46,0.00,CLR,CLR,0.00,WeatherDisplay:10.37,2013-04-25 19:50:00,
2013-04-25 15:55:00,56.3,35.8,30.21,WNW,292,10.4,10.4,46,0.00,CLR,CLR,0.00,WeatherDisplay:10.37,2013-04-25 19:55:00,
2013-04-25 16:00:00,56.3,35.8,30.21,WSW,248,8.1,8.1,46,0.00,CLR,CLR,0.00,WeatherDisplay:10.37,2013-04-25 20:00:00,
2013-04-25 16:05:00,55.9,35.4,30.21,NNW,338,8.1,8.1,46,0.00,CLR,CLR,0.00,WeatherDisplay:10.37,2013-04-25 20:05:00,
2013-04-25 16:10:00,55.0,34.6,30.21,WNW,292,8.1,8.1,46,0.00,CLR,CLR,0.00,WeatherDisplay:10.37,2013-04-25 20:10:00,
2013-04-25 16:15:00,55.9,34.9,30.21,WSW,248,10.4,10.4,45,0.00,CLR,CLR,0.00,WeatherDisplay:10.37,2013-04-25 20:15:00,
2013-04-25 16:21:00,55.8,35.3,30.21,WNW,292,8.1,8.1,46,0.00,CLR,CLR,0.00,WeatherDisplay:10.37,2013-04-25 20:21:00,
2013-04-25 16:26:00,54.9,34.5,30.21,SSW,202,9.2,9.2,46,0.00,CLR,CLR,0.00,WeatherDisplay:10.37,2013-04-25 20:26:00,
2013-04-25 16:31:00,53.8,33.5,30.21,SSW,202,7.6,7.6,46,0.00,CLR,CLR,0.00,WeatherDisplay:10.37,2013-04-25 20:31:00,
2013-04-25 16:36:00,53.2,33.5,30.18,WSW,248,16.1,16.1,47,0.00,CLR,CLR,0.00,WeatherDisplay:10.37,2013-04-25 20:36:00,
2013-04-25 16:41:00,54.7,34.8,30.18,WNW,292,11.5,11.5,47,0.00,CLR,CLR,0.00,WeatherDisplay:10.37,2013-04-25 20:41:00,
2013-04-25 16:46:00,56.7,36.1,30.18,WNW,292,9.2,9.2,46,0.00,CLR,CLR,0.00,WeatherDisplay:10.37,2013-04-25 20:46:00,
2013-04-25 16:52:00,55.2,34.8,30.21,SSW,202,16.8,16.8,46,0.00,CLR,CLR,0.00,WeatherDisplay:10.37,2013-04-25 20:52:00,
2013-04-25 16:57:00,54.5,34.1,30.21,WNW,292,6.9,6.9,46,0.00,CLR,CLR,0.00,WeatherDisplay:10.37,2013-04-25 20:57:00,
2013-04-25 17:02:00,54.1,33.8,30.21,WSW,248,17.3,17.3,46,0.00,CLR,CLR,0.00,WeatherDisplay:10.37,2013-04-25 21:02:00,
2013-04-25 17:07:00,54.5,34.1,30.21,WNW,292,12.3,12.3,46,0.00,CLR,CLR,0.00,WeatherDisplay:10.37,2013-04-25 21:07:00,
2013-04-25 17:12:00,56.8,35.7,30.21,WNW,292,10.4,10.4,45,0.00,CLR,CLR,0.00,WeatherDisplay:10.37,2013-04-25 21:12:00,
2013-04-25 17:17:00,57.4,35.0,30.21,WNW,292,15.2,15.2,43,0.00,CLR,CLR,0.00,WeatherDisplay:10.37,2013-04-25 21:17:00,
2013-04-25 17:23:00,55.6,34.0,30.21,WSW,248,10.4,10.4,44,0.00,CLR,CLR,0.00,WeatherDisplay:10.37,2013-04-25 21:23:00,
2013-04-25 17:28:00,55.9,34.9,30.21,WSW,248,14.5,14.5,45,0.00,CLR,CLR,0.00,WeatherDisplay:10.37,2013-04-25 21:28:00,
2013-04-25 17:33:00,55.6,34.6,30.21,WNW,292,11.5,11.5,45,0.00,CLR,CLR,0.00,WeatherDisplay:10.37,2013-04-25 21:33:00,
2013-04-25 17:38:00,54.7,33.7,30.21,WSW,248,10.7,10.7,45,0.00,CLR,CLR,0.00,WeatherDisplay:10.37,2013-04-25 21:38:00,
2013-04-25 17:44:00,54.9,34.5,30.21,West,270,12.3,12.3,46,0.00,CLR,CLR,0.00,WeatherDisplay:10.37,2013-04-25 21:44:00,
2013-04-25 17:49:00,54.7,34.3,30.21,West,270,13.8,13.8,46,0.00,CLR,CLR,0.00,WeatherDisplay:10.37,2013-04-25 21:49:00,
2013-04-25 17:54:00,54.7,34.3,30.21,WNW,292,9.8,9.8,46,0.00,CLR,CLR,0.00,WeatherDisplay:10.37,2013-04-25 21:54:00,
2013-04-25 17:59:00,54.5,34.1,30.21,WNW,292,6.9,6.9,46,0.00,CLR,CLR,0.00,WeatherDisplay:10.37,2013-04-25 21:59:00,
2013-04-25 18:04:00,55.6,35.1,30.21,WNW,292,12.7,12.7,46,0.00,CLR,CLR,0.00,WeatherDisplay:10.37,2013-04-25 22:04:00,
2013-04-25 18:10:00,56.3,35.2,30.21,WNW,292,10.4,10.4,45,0.00,CLR,CLR,0.00,WeatherDisplay:10.37,2013-04-25 22:10:00,
2013-04-25 18:15:00,56.8,35.1,30.21,WNW,292,11.5,11.5,44,0.00,CLR,CLR,0.00,WeatherDisplay:10.37,2013-04-25 22:15:00,
2013-04-25 18:20:00,56.7,34.4,30.21,West,270,19.6,19.6,43,0.00,CLR,CLR,0.00,WeatherDisplay:10.37,2013-04-25 22:20:00,
2013-04-25 18:25:00,55.2,34.2,30.21,WNW,292,20.7,20.7,45,0.00,CLR,CLR,0.00,WeatherDisplay:10.37,2013-04-25 22:25:00,
2013-04-25 18:31:00,54.5,34.1,30.21,WNW,292,19.6,19.6,46,0.00,CLR,CLR,0.00,WeatherDisplay:10.37,2013-04-25 22:31:00,
2013-04-25 18:36:00,54.7,34.8,30.21,WNW,292,15.0,15.0,47,0.00,CLR,CLR,0.00,WeatherDisplay:10.37,2013-04-25 22:36:00,
2013-04-25 18:41:00,55.0,35.2,30.21,WNW,292,8.5,8.5,47,0.00,CLR,CLR,0.00,WeatherDisplay:10.37,2013-04-25 22:41:00,
2013-04-25 18:46:00,54.9,34.5,30.21,WNW,292,20.7,20.7,46,0.00,CLR,CLR,0.00,WeatherDisplay:10.37,2013-04-25 22:46:00,
2013-04-25 18:51:00,54.7,34.8,30.21,WNW,292,11.5,11.5,47,0.00,CLR,CLR,0.00,WeatherDisplay:10.37,2013-04-25 22:51:00,
2013-04-25 18:56:00,54.5,34.1,30.21,NNW,338,13.8,13.8,46,0.00,CLR,CLR,0.00,WeatherDisplay:10.37,2013-04-25 22:56:00,
2013-04-25 19:02:00,54.1,33.8,30.21,WNW,292,15.4,15.4,46,0.00,CLR,CLR,0.00,WeatherDisplay:10.37,2013-04-25 23:02:00,
2013-04-25 19:07:00,53.8,33.5,30.24,WNW,292,10.4,10.4,46,0.00,CLR,CLR,0.00,WeatherDisplay:10.37,2013-04-25 23:07:00,
2013-04-25 19:12:00,53.2,33.0,30.24,WNW,292,10.4,10.4,46,0.00,CLR,CLR,0.00,WeatherDisplay:10.37,2013-04-25 23:12:00,
2013-04-25 19:17:00,52.7,32.5,30.24,NNW,338,13.8,13.8,46,0.00,CLR,CLR,0.00,WeatherDisplay:10.37,2013-04-25 23:17:00,
2013-04-25 19:23:00,52.3,32.2,30.24,WNW,292,13.8,13.8,46,0.00,CLR,CLR,0.00,WeatherDisplay:10.37,2013-04-25 23:23:00,
2013-04-25 19:28:00,52.2,31.4,30.24,WNW,292,16.1,16.1,45,0.00,CLR,CLR,0.00,WeatherDisplay:10.37,2013-04-25 23:28:00,
2013-04-25 19:33:00,52.0,31.3,30.24,NNW,338,11.5,11.5,45,0.00,CLR,CLR,0.00,WeatherDisplay:10.37,2013-04-25 23:33:00,
2013-04-25 19:38:00,51.6,30.9,30.24,WNW,292,12.7,12.7,45,0.00,CLR,CLR,0.00,WeatherDisplay:10.37,2013-04-25 23:38:00,
2013-04-25 19:43:00,51.6,30.9,30.24,NNW,338,13.8,13.8,45,0.00,CLR,CLR,0.00,WeatherDisplay:10.37,2013-04-25 23:43:00,
2013-04-25 19:49:00,51.8,31.1,30.24,WSW,248,6.9,6.9,45,0.00,CLR,CLR,0.00,WeatherDisplay:10.37,2013-04-25 23:49:00,
2013-04-25 19:54:00,51.6,30.4,30.27,WNW,292,12.7,12.7,44,0.00,CLR,CLR,0.00,WeatherDisplay:10.37,2013-04-25 23:54:00,
2013-04-25 19:59:00,51.6,30.4,30.27,WNW,292,15.0,15.0,44,0.00,CLR,CLR,0.00,WeatherDisplay:10.37,2013-04-25 23:59:00,
2013-04-25 20:04:00,51.1,29.3,30.27,WNW,292,11.5,11.5,43,0.00,CLR,CLR,0.00,WeatherDisplay:10.37,2013-04-26 00:04:00,
2013-04-25 20:10:00,50.5,28.3,30.27,NNW,338,11.5,11.5,42,0.00,CLR,CLR,0.00,WeatherDisplay:10.37,2013-04-26 00:10:00,
2013-04-25 20:15:00,50.2,28.5,30.27,WNW,292,12.7,12.7,43,0.00,CLR,CLR,0.00,WeatherDisplay:10.37,2013-04-26 00:15:00,
2013-04-25 20:20:00,49.6,28.0,30.27,NNW,338,9.2,9.2,43,0.00,CLR,CLR,0.00,WeatherDisplay:10.37,2013-04-26 00:20:00,
2013-04-25 20:25:00,49.3,28.3,30.27,WNW,292,12.5,12.5,44,0.00,CLR,CLR,0.00,WeatherDisplay:10.37,2013-04-26 00:25:00,
2013-04-25 20:31:00,48.9,27.9,30.27,WNW,292,12.7,12.7,44,0.00,CLR,CLR,0.00,WeatherDisplay:10.37,2013-04-26 00:31:00,
2013-04-25 20:36:00,48.7,27.8,30.27,WNW,292,8.1,11.4,44,0.00,CLR,CLR,0.00,WeatherDisplay:10.37,2013-04-26 00:36:00,
2013-04-25 20:41:00,48.4,27.4,30.27,WNW,292,8.1,8.1,44,0.00,CLR,CLR,0.00,WeatherDisplay:10.37,2013-04-26 00:41:00,
2013-04-25 20:46:00,48.0,27.7,30.27,NNW,338,8.1,8.1,45,0.00,CLR,CLR,0.00,WeatherDisplay:10.37,2013-04-26 00:46:00,
2013-04-25 20:52:00,47.8,27.5,30.27,WNW,292,8.1,8.1,45,0.00,CLR,CLR,0.00,WeatherDisplay:10.37,2013-04-26 00:52:00,
2013-04-25 20:57:00,47.7,27.3,30.27,WNW,292,8.1,8.1,45,0.00,CLR,CLR,0.00,WeatherDisplay:10.37,2013-04-26 00:57:00,
2013-04-25 21:02:00,47.3,27.0,30.27,WNW,292,6.2,6.2,45,0.00,CLR,CLR,0.00,WeatherDisplay:10.37,2013-04-26 01:02:00,
2013-04-25 21:07:00,47.1,27.4,30.30,WNW,292,6.9,6.9,46,0.00,CLR,CLR,0.00,WeatherDisplay:10.37,2013-04-26 01:07:00,
2013-04-25 21:12:00,46.6,26.9,30.30,WNW,292,3.5,3.5,46,0.00,CLR,CLR,0.00,WeatherDisplay:10.37,2013-04-26 01:12:00,
2013-04-25 21:18:00,46.0,26.9,30.30,WNW,292,4.9,4.9,47,0.00,CLR,CLR,0.00,WeatherDisplay:10.37,2013-04-26 01:18:00,
2013-04-25 21:23:00,45.7,26.6,30.30,NNW,338,4.6,4.6,47,0.00,CLR,CLR,0.00,WeatherDisplay:10.37,2013-04-26 01:23:00,
2013-04-25 21:28:00,45.3,26.3,30.30,WNW,292,4.0,4.0,47,0.00,CLR,CLR,0.00,WeatherDisplay:10.37,2013-04-26 01:28:00,
2013-04-25 21:33:00,45.3,25.7,30.30,WNW,292,5.8,5.8,46,0.00,CLR,CLR,0.00,WeatherDisplay:10.37,2013-04-26 01:33:00,
2013-04-25 21:38:00,45.3,25.2,30.30,NNW,338,4.6,4.6,45,0.00,CLR,CLR,0.00,WeatherDisplay:10.37,2013-04-26 01:38:00,
2013-04-25 21:44:00,45.1,24.5,30.30,NW,315,6.9,6.9,44,0.00,CLR,CLR,0.00,WeatherDisplay:10.37,2013-04-26 01:44:00,
2013-04-25 21:49:00,44.8,23.6,30.30,WNW,292,4.6,4.6,43,0.00,CLR,CLR,0.00,WeatherDisplay:10.37,2013-04-26 01:49:00,
2013-04-25 21:54:00,44.6,23.5,30.30,NNW,338,3.5,3.5,43,0.00,CLR,CLR,0.00,WeatherDisplay:10.37,2013-04-26 01:54:00,
2013-04-25 21:59:00,44.2,23.7,30.30,WNW,292,3.5,3.5,44,0.00,CLR,CLR,0.00,WeatherDisplay:10.37,2013-04-26 01:59:00,
2013-04-25 22:04:00,43.7,23.2,30.30,NNW,338,3.3,3.3,44,0.00,CLR,CLR,0.00,WeatherDisplay:10.37,2013-04-26 02:04:00,
2013-04-25 22:09:00,43.5,23.0,30.30,NNW,338,2.6,2.6,44,0.00,CLR,CLR,0.00,WeatherDisplay:10.37,2013-04-26 02:09:00,
2013-04-25 22:14:00,43.0,22.5,30.30,WNW,292,2.4,2.4,44,0.00,CLR,CLR,0.00,WeatherDisplay:10.37,2013-04-26 02:14:00,
2013-04-25 22:19:00,42.8,22.4,30.33,WNW,292,2.3,2.3,44,0.00,CLR,CLR,0.00,WeatherDisplay:10.37,2013-04-26 02:19:00,
2013-04-25 22:25:00,42.6,22.2,30.33,WNW,292,3.5,3.5,44,0.00,CLR,CLR,0.00,WeatherDisplay:10.37,2013-04-26 02:25:00,
2013-04-25 22:30:00,42.1,21.7,30.33,WNW,292,0.0,0.0,44,0.00,CLR,CLR,0.00,WeatherDisplay:10.37,2013-04-26 02:30:00,
2013-04-25 22:35:00,41.9,21.5,30.33,WNW,292,2.6,2.6,44,0.00,CLR,CLR,0.00,WeatherDisplay:10.37,2013-04-26 02:35:00,
2013-04-25 22:40:00,41.7,21.4,30.33,WNW,292,2.4,2.4,44,0.00,CLR,CLR,0.00,WeatherDisplay:10.37,2013-04-26 02:40:00,
2013-04-25 22:46:00,41.7,21.4,30.33,WNW,292,2.3,2.3,44,0.00,CLR,CLR,0.00,WeatherDisplay:10.37,2013-04-26 02:46:00,
2013-04-25 22:51:00,41.9,21.5,30.33,WNW,292,2.4,2.4,44,0.00,CLR,CLR,0.00,WeatherDisplay:10.37,2013-04-26 02:51:00,
2013-04-25 22:56:00,41.7,21.4,30.33,NNW,338,3.5,3.5,44,0.00,CLR,CLR,0.00,WeatherDisplay:10.37,2013-04-26 02:56:00,
2013-04-25 23:01:00,41.9,21.5,30.33,WNW,292,3.5,3.5,44,0.00,CLR,CLR,0.00,WeatherDisplay:10.37,2013-04-26 03:01:00,
2013-04-25 23:06:00,41.4,21.1,30.33,WNW,292,2.3,2.3,44,0.00,CLR,CLR,0.00,WeatherDisplay:10.37,2013-04-26 03:06:00,
2013-04-25 23:12:00,41.2,20.9,30.33,NNW,338,1.2,0.0,44,0.00,CLR,CLR,0.00,WeatherDisplay:10.37,2013-04-26 03:12:00,
2013-04-25 23:17:00,41.0,21.3,30.33,WNW,292,2.3,2.3,45,0.00,CLR,CLR,0.00,WeatherDisplay:10.37,2013-04-26 03:17:00,
2013-04-25 23:22:00,40.6,20.9,30.33,WNW,292,2.3,2.3,45,0.00,CLR,CLR,0.00,WeatherDisplay:10.37,2013-04-26 03:22:00,
2013-04-25 23:27:00,41.0,21.3,30.33,NNW,338,2.9,2.9,45,0.00,CLR,CLR,0.00,WeatherDisplay:10.37,2013-04-26 03:27:00,
2013-04-25 23:32:00,40.6,20.9,30.33,WSW,248,2.3,2.3,45,0.00,CLR,CLR,0.00,WeatherDisplay:10.37,2013-04-26 03:32:00,
2013-04-25 23:38:00,40.5,20.8,30.36,WNW,292,2.3,0.0,45,0.00,CLR,CLR,0.00,WeatherDisplay:10.37,2013-04-26 03:38:00,
2013-04-25 23:43:00,39.7,20.6,30.36,WNW,292,2.3,0.0,46,0.00,CLR,CLR,0.00,WeatherDisplay:10.37,2013-04-26 03:43:00,
2013-04-25 23:48:00,39.0,20.0,30.36,WNW,292,1.2,1.2,46,0.00,CLR,CLR,0.00,WeatherDisplay:10.37,2013-04-26 03:48:00,
2013-04-25 23:53:00,38.7,19.6,30.36,NNW,338,1.2,0.0,46,0.00,CLR,CLR,0.00,WeatherDisplay:10.37,2013-04-26 03:53:00,
2013-04-25 23:58:00,38.3,19.3,30.36,NNW,338,0.0,0.0,46,0.00,CLR,CLR,0.00,WeatherDisplay:10.37,2013-04-26 03:58:00,